Location: Dal�� Lhota
(48.7500°N, 14.0167°E)
Time: 00:30:18
(UTC+00:00)

Vanguard 3 - Pass Details

Date: 01 August 2021
Orbit: 510 x 3260 km, 33.3° (Epoch: 19 September)

Event Time Altitude Azimuth Distance (km) Brightness Sun altitude
Rises 15:52:14 0° 214° (SW) 5,309 11.8 26.1°
Reaches altitude 10° 15:55:48 10° 205° (SSW) 4,675 11.5 25.5°
Maximum altitude 16:07:41 33° 148° (SSE) 4,036 10.6 23.6°
Drops below altitude 10° 16:23:21 10° 95° (E) 6,189 11.1 21.0°
Sets 16:28:59 0° 87° (E) 7,216 11.4 20.0°
